Starlink 4521

operational
NORAD ID: 53391 Int'l Des: 2022-097 Owner: SPXS Country: US Constellation: starlink
LEOCIRCULAR

About Starlink 4521

Description loading...

Live Position

Loading 3D Globe...

Upcoming Passes

Altitude History

Altitude vs Time

uPlot chart will show altitude changes over time

Two-Line Element Set

1 53391U 22097D 25346.87165926 -.00000942 00000-0 -41133-4 0 9998
2 53391 53.2164 153.8612 0001449 87.5960 272.5198 15.08835051185568
Epoch: Dec 12, 2025 • Age: 17 hours

Current Status

Altitude 558.7 km
Velocity 7.58 km/s
Sub-Earth Point -51.81°S, 109.75°E
Launch Date Aug 10, 2022
Age 3.3 years
Type internet

Technical Details

Classification Payload
Mass 297.00 kg
Dry Mass 275.00 kg
Total Mass 297.00 kg
Length 0.20 m
Diameter 2.80 m
Span 9.00 m
Shape Box + pan
Manufacturer SPXS
Bus Type Starlink
Phase Status In Orbit
Owner/State SPXS/US

Large Constellations

Loading constellations...